Location: ???????????
(38.2661°N, 23.2350°E)
Time: 11:56:09
(UTC+00:00)

CZ-4C R/B - Visible Passes

Search period start: 13 April 2024 00:00
Search period end: 23 April 2024 00:00
Orbit: 447 x 588 km, 98.0° (Epoch: 13 April)

Date Brightness Start Highest point End Pass type
(mag) Time Alt. Az. Time Alt. Az. Time Alt. Az.
13 Apr 3.4 18:57:20 10° N 19:00:43 58° WNW 19:01:20 48° WSW visible
14 Apr 2.7 18:43:07 10° NNE 18:46:33 84° E 18:47:05 61° S visible
15 Apr 3.0 18:29:01 10° NNE 18:32:20 49° E 18:32:49 45° SE visible
16 Apr 3.7 18:15:03 10° NE 18:18:05 30° E 18:18:33 29° ESE visible
16 Apr 6.1 19:50:20 10° NW 19:51:50 12° WNW 19:53:19 10° W visible
17 Apr 4.3 18:01:16 10° NE 18:03:47 19° E 18:04:15 19° ESE visible
17 Apr 5.6 19:35:17 10° NNW 19:37:44 19° WNW 19:39:19 14° WSW visible
18 Apr 4.8 17:47:57 10° ENE 17:49:27 12° E 17:49:57 12° ESE visible
18 Apr 4.9 19:20:38 10° N 19:23:35 28° WNW 19:25:00 20° WSW visible
19 Apr 3.9 19:06:07 10° N 19:09:23 45° WNW 19:10:42 29° SW visible
20 Apr 3.0 18:51:46 10° N 18:55:08 77° WNW 18:56:22 36° SSW visible
21 Apr 2.8 18:37:30 10° NNE 18:40:51 63° ESE 18:42:02 36° S visible
22 Apr 3.4 18:23:21 10° NNE 18:26:31 37° E 18:27:41 28° SE visible
22 Apr 6.3 19:59:46 10° WNW 20:00:11 10° WNW 20:00:37 10° WNW visible
